Mt. Pocono, PA

4:56 AM EDT on September 22, 2017 (GMT -0400)
Pocono Mountains Municipal

Weather History for KMPO - January, 2013

Change the Weather History Date:

Saturday, January 5, 2013

  Actual Average Record
Temperature  
Mean Temperature 27 °F 24 °F  
Max Temperature 34 °F 31 °F 56 °F (1993)
Min Temperature 20 °F 16 °F -27 °F (1904)
Degree Days  
Heating Degree Days 38 42  
Month to date heating degree days 208 206  
Since 1 July heating degree days 2725 2943  
Cooling Degree Days 0 0  
Month to date cooling degree days 0 0  
Year to date cooling degree days 0 0  
Moisture  
Dew Point 18 °F    
Average Humidity 74    
Maximum Humidity 91    
Minimum Humidity 56    
Precipitation  
Precipitation 0.00 in 0.12 in 0.96 in (1917)
Month to date precipitation 0.01 0.64  
Year to date precipitation 0.01 0.64  
Sea Level Pressure  
Sea Level Pressure 30.18 in    
Wind  
Wind Speed 10 mph (WNW)    
Max Wind Speed 23 mph    
Max Gust Speed 33 mph    
Visibility 10 miles    
Events      
T = Trace of Precipitation, MM = Missing Value Source: NWS Daily Summary

Daily Weather History Graph

Daily Weather History Graph

Search for Another Location

Airport or City:

Trip Planner

Search our weather history database for the weather conditions in past years. The results will help you decide how hot, cold, wet, or windy it might be!

Date:

Astronomy

Jan. 05, 2013 Rise Set
Actual Time 7:26 AM EST 4:47 PM EST
Civil Twilight 6:56 AM EST 5:18 PM EST
Nautical Twilight 6:21 AM EST 5:52 PM EST
Astronomical Twilight 5:48 AM EST 6:26 PM EST
Moon 12:28 AM EST (1/5) 11:37 AM EST (1/5)
Length of Visible Light 10h 22m
Length of Day
9h 20m
Last Quarter, 44% of the Moon is Illuminated
Jan 5
Last Quarter
Jan 11
New
Jan 18
First Quarter
Jan 26
Full
Feb 3
Last Quarter

Hourly Weather History & Observations

Time (EST) Temp. Windchill Dew Point Humidity Pressure Visibility Wind Dir Wind Speed Gust Speed Precip Events Conditions
12:53 AM 24.1 °F 11.5 °F 15.1 °F 69% 30.01 in - WNW 15.0 mph 26.5 mph N/A   Clear
1:53 AM 24.1 °F 12.0 °F 14.0 °F 65% 30.04 in - WNW 13.8 mph 23.0 mph N/A   Clear
2:42 AM 24.8 °F 11.9 °F 14.0 °F 64% 29.99 in 10.0 mi WNW 16.1 mph 25.3 mph N/A   Mostly Cloudy
2:53 AM 24.1 °F 11.0 °F 15.1 °F 69% 30.06 in - WNW 16.1 mph 21.9 mph N/A   Overcast
3:53 AM 25.0 °F 13.1 °F 15.1 °F 66% 30.07 in - WNW 13.8 mph 24.2 mph N/A   Overcast
4:53 AM 25.0 °F 12.6 °F 16.0 °F 69% 30.09 in 10.0 mi WNW 15.0 mph 25.3 mph N/A   Overcast
5:53 AM 26.1 °F 14.5 °F 17.1 °F 69% 30.13 in - WNW 13.8 mph 25.3 mph N/A   Overcast
6:53 AM 26.1 °F 15.0 °F 18.0 °F 71% 30.18 in - WNW 12.7 mph 20.7 mph N/A   Overcast
7:53 AM 26.1 °F 14.0 °F 18.0 °F 71% 30.21 in - WNW 15.0 mph 21.9 mph N/A   Overcast
8:53 AM 27.0 °F 15.6 °F 19.0 °F 72% 30.23 in - WNW 13.8 mph 21.9 mph N/A   Overcast
9:53 AM 28.9 °F 16.9 °F 19.0 °F 67% 30.26 in - NW 17.3 mph 31.1 mph N/A   Mostly Cloudy
10:02 AM 28.4 °F 15.4 °F 19.4 °F 69% 30.19 in - NW 19.6 mph 32.2 mph N/A   Partly Cloudy
10:53 AM 30.0 °F 17.9 °F 19.0 °F 64% 30.27 in - NW 18.4 mph 32.2 mph N/A   Clear
11:53 AM 32.0 °F 20.1 °F 19.9 °F 61% 30.25 in - NW 19.6 mph 27.6 mph N/A   Clear
12:53 PM 32.0 °F 24.2 °F 19.0 °F 59% 30.24 in - NW 9.2 mph 17.3 mph N/A   Clear
1:53 PM 33.1 °F 25.5 °F 19.9 °F 59% 30.22 in - NW 9.2 mph - N/A   Clear
2:53 PM 33.1 °F 26.9 °F 19.0 °F 56% 30.23 in - NNW 6.9 mph - N/A   Clear
3:53 PM 33.1 °F 28.7 °F 19.0 °F 56% 30.23 in - NNW 4.6 mph - N/A   Clear
4:53 PM 30.9 °F 27.5 °F 18.0 °F 59% 30.25 in - NW 3.5 mph - N/A   Clear
5:53 PM 26.1 °F - 18.0 °F 71% 30.24 in 10.0 mi Calm Calm - N/A   Clear
6:53 PM 26.1 °F 21.9 °F 18.0 °F 71% 30.24 in 10.0 mi WNW 3.5 mph - N/A   Clear
7:53 PM 21.9 °F - 17.1 °F 82% 30.25 in 10.0 mi Calm Calm - N/A   Clear
8:53 PM 21.9 °F 17.2 °F 18.0 °F 85% 30.23 in - NW 3.5 mph - N/A   Clear
9:53 PM 19.9 °F - 17.1 °F 89% 30.20 in - Calm Calm - N/A   Clear
10:53 PM 24.1 °F 19.7 °F 18.0 °F 77% 30.20 in - WSW 3.5 mph - N/A   Overcast
11:53 PM 26.1 °F 20.5 °F 19.0 °F 75% 30.18 in - West 4.6 mph - N/A   Overcast